Weather observations for the past three days for
Childress, Childress Municipal Airport
Imperial (Metric)
Date Time (cdt) Wind (mph) Vis. (mi.) Weather Sky Cond. Temperature (ºF) Relative Humidity Wind Chill (°F) Heat Index (°F) Pressure Precipitation (in)
Air Dwpt 6 hour altimeter (in) sea level (mb) 1 hr 3 hr 6 hr
Max. Min.
14 07:53 S 7 10.00 Fair CLR 75 70 84% 75 30.01 1013.3
14 06:53 S 5 7.00 Fair CLR 71.1 70 79 71.1 96% 29.99 1012.7
14 05:53 SE 7 10.00 Fair CLR 72 70 94% 29.98 1012.1
14 04:53 SE 3 10.00 Fair CLR 73 70 90% 29.98 1012.3
14 03:53 E 5 10.00 Fair CLR 75 70 84% 75 30 1012.7
14 02:53 E 8 10.00 Fair CLR 75.9 69.1 79% 77 29.98 1012.1
14 01:53 SE 9 10.00 Fair CLR 79 69.1 72% 82 29.99 1012.5
14 00:53 S 9 10.00 Fair CLR 79 69.1 93 78.1 72% 82 29.98 1012.2
13 23:53 SE 8 10.00 Fair CLR 81 69.1 67% 84 30 1012.7
13 22:53 Calm 10.00 Fair CLR 82.9 68 61% 86 29.99 1012.4
13 21:53 S 8 10.00 Fair CLR 82.9 69.1 63% 87 29.92 1010.4
13 20:53 S 8 10.00 Fair CLR 86 69.1 57% 90 29.91 1009.8
13 19:53 S 12 G 22 10.00 Fair CLR 91 69.1 49% 96 29.89 1009.3
13 18:53 S 15 G 24 10.00 Fair CLR 93 68 95 90 44% 97 29.89 1009.2
13 17:53 S 14 G 22 10.00 Fair CLR 93.9 70 46% 100 29.9 1009.6
13 16:53 S 15 G 22 10.00 Fair CLR 95 71.1 46% 102 29.92 1010.1
13 15:53 S 13 10.00 Fair CLR 93.9 72 49% 102 29.93 1010.6
13 14:53 SW 15 G 23 10.00 Fair CLR 93.9 71.1 48% 101 29.94 1010.9
13 13:53 S 15 G 23 10.00 Fair CLR 91.9 72 52% 100 29.96 1011.7
13 12:53 S 15 G 21 10.00 Fair CLR 90 72 90 69.1 56% 97 29.98 1012.2
13 11:53 S 12 G 20 10.00 Fair CLR 88 72 59% 95 29.99 1012.5
13 10:53 SW 12 G 20 10.00 Fair CLR 86 71.1 61% 92 29.99 1012.5
13 09:53 S 13 10.00 Fair CLR 81 70 69% 84 29.99 1012.9
13 08:53 S 10 10.00 Fair CLR 75.9 70 82% 77 29.99 1012.8
13 07:53 S 7 8.00 Fair CLR 72 69.1 91% 29.98 1012.6
13 06:53 S 7 6.00 Fog/Mist CLR 69.1 66.9 73.9 68 93% 29.96 1011.9
13 05:53 S 6 9.00 Fair CLR 69.1 66.9 93% 29.94 1011.3
13 04:53 S 7 10.00 Fair CLR 71.1 68 90% 29.94 1011.1
13 03:53 S 7 10.00 Fair CLR 71.1 68 90% 29.94 1011.1
13 02:53 S 7 10.00 Fair CLR 71.1 68 90% 29.94 1011.2
13 01:53 S 7 10.00 Fair CLR 71.1 66.9 87% 29.94 1011.4
13 00:53 S 8 10.00 Fair CLR 72 66.9 84.9 72 84% 29.95 1011.6
12 23:53 S 8 10.00 Fair CLR 73.9 68 82% 29.95 1011.8
12 22:53 S 7 10.00 Fair CLR 75 68 79% 76 29.95 1011.8
12 21:53 S 8 10.00 Fair CLR 77 68 74% 79 29.93 1011.2
12 20:53 S 7 10.00 Fair CLR 79 66.9 67% 81 29.93 1011.0
12 19:53 S 10 10.00 Fair CLR 84 66.9 57% 87 29.93 1011.0
12 18:53 S 13 10.00 Fair CLR 84.9 66.9 88 80.1 55% 88 29.92 1010.8
12 17:53 S 12 10.00 Fair CLR 87.1 66.9 51% 90 29.94 1011.1
12 16:53 S 13 G 21 10.00 Fair CLR 86 66.9 53% 89 29.95 1011.8
12 15:53 S 12 10.00 Fair CLR 86 66.9 53% 89 29.97 1012.5
12 14:53 S 9 10.00 Fair CLR 84.9 66.9 55% 88 30 1013.3
12 13:53 Vrbl 7 10.00 A Few Clouds FEW031 82.9 66.9 59% 86 30.02 1014.0
12 12:53 SE 5 10.00 Fair CLR 80.1 66.9 81 66 64% 82 30.04 1014.8
12 11:53 SE 6 10.00 A Few Clouds FEW025 78.1 66 67% 80 30.05 1015.2
12 10:53 SW 6 10.00 Mostly Cloudy BKN021 75.9 66 72% 77 30.05 1015.4
12 09:53 W 8 10.00 Mostly Cloudy FEW005 BKN022 72 66.9 84% 30.06 1015.8
12 08:53 W 7 2.50 Fog/Mist OVC002 66.9 66.9 100% 30.06 1016.0
12 06:53 SW 6 0.25 Fog VV002 66 66 69.1 66 100% 30.04 1015.1
12 05:53 S 5 0.25 Fog VV002 66 66 100% 30.03 1014.5
12 04:53 S 3 2.50 Fog/Mist BKN003 66 66 100% 30.03 1014.5
12 03:53 S 5 4.00 Fog/Mist CLR 66 66 100% 30.01 1014.1
12 02:53 SE 7 6.00 Fog/Mist CLR 66.9 66 97% 30.01 1013.8
12 01:53 SE 3 10.00 Fair CLR 68 66 93% 30.02 1014.2
12 00:53 SE 6 10.00 Fair CLR 69.1 66 80.1 69.1 90% 30.02 1014.3
11 23:53 SE 6 10.00 Fair CLR 69.1 64.9 87% 30.02 1014.6
11 22:53 SE 5 10.00 Fair CLR 70 64.9 84% 30.01 1014.0
11 21:53 SE 3 10.00 Fair CLR 72 64.9 79% 30 1013.7
11 20:53 SE 6 10.00 Fair CLR 73.9 64.9 74% 29.98 1013.2
11 19:53 SE 8 10.00 Fair CLR 78.1 64.9 64% 80 29.95 1012.0
11 18:53 E 8 10.00 Fair CLR 80.1 64 82.9 75 58% 82 29.94 1011.5
11 17:53 E 10 10.00 A Few Clouds FEW043 FEW055 80.1 66.9 64% 82 29.94 1011.4
11 16:53 E 7 10.00 Partly Cloudy SCT038 82 66.9 60% 85 29.94 1011.5
11 15:53 NE 8 10.00 Mostly Cloudy BKN038 BKN060 82 63 53% 83 29.96 1012.3
11 14:53 E 7 10.00 Mostly Cloudy FEW036 BKN060 80.1 66 62% 82 29.97 1012.7
11 13:53 Calm 10.00 Overcast FEW023 BKN029 OVC055 78.1 66.9 69% 80 29.99 1013.3
11 12:53 Calm 10.00 Overcast BKN020 BKN024 OVC030 75.9 66.9 77 64.9 74% 77 30.01 1013.8 0.01
11 11:53 Calm 10.00 Partly Cloudy SCT014 73 66.9 81% 30.01 1013.9
11 10:53 Calm 10.00 Mostly Cloudy BKN011 71.1 64.9 81% 30 1013.7
11 09:53 S 5 10.00 Overcast FEW065 OVC090 66.9 64.9 93% 29.99 1013.8 0.01
11 08:53 W 6 10.00 Mostly Cloudy BKN040 BKN090 BKN110 66 64 93% 29.99 1013.7
Date Time (cdt) Wind (mph) Vis. (mi.) Weather Sky Cond. Air Dwpt Max. Min. Relative Humidity Wind Chill (°F) Heat Index (°F) altimeter (in) sea level (mb) 1 hr 3 hr 6 hr
6 hour
Temperature (ºF) Pressure Precipitation (in)